• In Hungary
  • List of Countries
  • For 7 days
  • Water Temperature
  • Satellite Maps
  • Weather Map
  • News
  • Weather Widgets
  • user-avatar
    Login

    Hourly Weather Bugojno

    Today, 22 October, Sunday

    Time Temperature Precipitation Wind Pressure Humidity
    00:00 +12°C° 0 mm 1 mps 712 mmHg 86%
    01:00 +12°C° 0 mm 1 mps 712 mmHg 87%
    02:00 +12°C° 0 mm 1 mps 712 mmHg 88%
    03:00 +11°C° 0 mm 1 mps 712 mmHg 88%
    04:00 +11°C° 0 mm 1 mps 711 mmHg 89%
    05:00 +11°C° 0 mm 1 mps 711 mmHg 88%
    06:00 +12°C° 0 mm 1 mps 711 mmHg 88%
    07:00 +12°C° 0 mm 1 mps 711 mmHg 85%
    08:00 +14°C° 0 mm 1 mps 711 mmHg 78%
    09:00 +16°C° 0 mm 1 mps 711 mmHg 72%
    10:00 +19°C° 0 mm 1 mps 711 mmHg 65%
    11:00 +20°C° 0 mm 1 mps 711 mmHg 64%
    12:00 +19°C° 0 mm 2 mps 710 mmHg 64%
    13:00 +20°C° 0 mm 2 mps 710 mmHg 63%
    14:00 +19°C° 0.6 mm 2 mps 709 mmHg 70%
    15:00 +18°C° 0.6 mm 2 mps 708 mmHg 77%
    16:00 +17°C° 0.6 mm 2 mps 708 mmHg 84%
    17:00 +16°C° 2.5 mm 2 mps 707 mmHg 88%
    18:00 +15°C° 2.5 mm 2 mps 707 mmHg 92%
    19:00 +15°C° 2.5 mm 2 mps 706 mmHg 95%
    20:00 +14°C° 2.8 mm 2 mps 706 mmHg 95%
    21:00 +14°C° 2.8 mm 2 mps 706 mmHg 96%
    22:00 +13°C° 2.8 mm 3 mps 705 mmHg 96%
    23:00 +12°C° 4.6 mm 3 mps 705 mmHg 96%

    Tomorrow, 23 October, Monday

    Time Temperature Precipitation Wind Pressure Humidity
    00:00 +10°C° 4.6 mm 3 mps 705 mmHg 96%
    01:00 +9°C° 4.6 mm 3 mps 705 mmHg 96%
    02:00 +9°C° 2.1 mm 3 mps 704 mmHg 96%
    03:00 +8°C° 2.1 mm 2 mps 704 mmHg 95%
    04:00 +8°C° 2.1 mm 2 mps 704 mmHg 95%
    05:00 +8°C° 2.1 mm 3 mps 704 mmHg 95%
    06:00 +7°C° 2.1 mm 3 mps 704 mmHg 95%
    07:00 +7°C° 2.1 mm 3 mps 704 mmHg 94%
    08:00 +6°C° 1.8 mm 4 mps 704 mmHg 93%
    09:00 +6°C° 1.8 mm 4 mps 704 mmHg 92%
    10:00 +6°C° 1.8 mm 4 mps 705 mmHg 91%
    11:00 +6°C° 1.2 mm 4 mps 705 mmHg 90%
    12:00 +6°C° 1.2 mm 5 mps 705 mmHg 89%
    13:00 +6°C° 1.2 mm 5 mps 705 mmHg 88%
    14:00 +6°C° 0.8 mm 5 mps 705 mmHg 88%
    15:00 +6°C° 0.8 mm 5 mps 705 mmHg 89%
    16:00 +6°C° 0.8 mm 5 mps 706 mmHg 89%
    17:00 +6°C° 0.7 mm 5 mps 706 mmHg 89%
    18:00 +5°C° 0.7 mm 6 mps 706 mmHg 90%
    19:00 +5°C° 0.7 mm 6 mps 706 mmHg 90%
    20:00 +4°C° 0.7 mm 6 mps 706 mmHg 90%
    21:00 +4°C° 0.7 mm 6 mps 707 mmHg 90%
    22:00 +4°C° 0.7 mm 6 mps 707 mmHg 90%
    23:00 +4°C° 0.5 mm 6 mps 707 mmHg 91%

    Day after tomorrow, 24 October, Tuesday

    Time Temperature Precipitation Wind Pressure Humidity
    00:00 +4°C° 0.5 mm 6 mps 707 mmHg 91%
    01:00 +4°C° 0.5 mm 6 mps 707 mmHg 91%
    02:00 +4°C° 0.7 mm 6 mps 707 mmHg 91%
    03:00 +4°C° 0.7 mm 6 mps 707 mmHg 91%
    04:00 +4°C° 0.7 mm 6 mps 707 mmHg 91%
    05:00 +4°C° 0.8 mm 6 mps 707 mmHg 91%
    06:00 +4°C° 0.8 mm 7 mps 707 mmHg 91%
    07:00 +4°C° 0.8 mm 7 mps 707 mmHg 91%
    08:00 +5°C° 0.8 mm 7 mps 708 mmHg 90%
    09:00 +5°C° 0.8 mm 8 mps 708 mmHg 89%
    10:00 +5°C° 0.8 mm 8 mps 708 mmHg 88%
    11:00 +6°C° 0.2 mm 8 mps 709 mmHg 88%
    12:00 +6°C° 0.2 mm 8 mps 709 mmHg 88%
    13:00 +6°C° 0.2 mm 8 mps 709 mmHg 87%
    14:00 +6°C° 0.2 mm 7 mps 709 mmHg 88%
    15:00 +6°C° 0.2 mm 7 mps 709 mmHg 88%
    16:00 +6°C° 0.2 mm 7 mps 709 mmHg 88%
    17:00 +6°C° 0.1 mm 7 mps 710 mmHg 89%
    18:00 +6°C° 0.1 mm 7 mps 710 mmHg 89%
    19:00 +6°C° 0.1 mm 7 mps 711 mmHg 89%
    20:00 +6°C° 0.1 mm 7 mps 711 mmHg 89%
    21:00 +7°C° 0.1 mm 6 mps 712 mmHg 90%
    22:00 +7°C° 0.1 mm 6 mps 712 mmHg 90%
    23:00 +7°C° 0 mm 5 mps 713 mmHg 91%

    25 October, Wednesday

    Time Temperature Precipitation Wind Pressure Humidity
    00:00 +6°C° 0 mm 5 mps 713 mmHg 91%
    01:00 +6°C° 0 mm 4 mps 713 mmHg 92%
    02:00 +6°C° 0 mm 4 mps 713 mmHg 92%
    03:00 +6°C° 0 mm 4 mps 714 mmHg 92%
    04:00 +7°C° 0 mm 3 mps 714 mmHg 92%
    05:00 +7°C° 0 mm 3 mps 714 mmHg 92%
    06:00 +7°C° 0 mm 3 mps 714 mmHg 92%
    07:00 +7°C° 0 mm 3 mps 715 mmHg 92%
    08:00 +8°C° 0 mm 3 mps 715 mmHg 88%
    09:00 +9°C° 0 mm 3 mps 716 mmHg 84%
    10:00 +10°C° 0 mm 3 mps 716 mmHg 81%
    11:00 +11°C° 0 mm 3 mps 716 mmHg 77%
    12:00 +12°C° 0 mm 3 mps 716 mmHg 74%
    13:00 +13°C° 0 mm 3 mps 716 mmHg 70%
    14:00 +13°C° 0 mm 2 mps 716 mmHg 73%
    15:00 +13°C° 0 mm 2 mps 716 mmHg 75%
    16:00 +12°C° 0 mm 2 mps 716 mmHg 78%
    17:00 +10°C° 0 mm 2 mps 716 mmHg 82%
    18:00 +8°C° 0 mm 2 mps 716 mmHg 86%
    19:00 +8°C° 0 mm 1 mps 717 mmHg 91%
    20:00 +8°C° 0 mm 1 mps 717 mmHg 89%
    21:00 +8°C° 0 mm 1 mps 717 mmHg 88%
    22:00 +8°C° 0 mm 1 mps 717 mmHg 87%
    23:00 +8°C° 0 mm 1 mps 717 mmHg 84%

    26 October, Thursday

    Time Temperature Precipitation Wind Pressure Humidity
    00:00 +8°C° 0 mm 1 mps 717 mmHg 81%
    01:00 +8°C° 0 mm 1 mps 717 mmHg 79%
    02:00 +8°C° 0 mm 1 mps 717 mmHg 76%
    03:00 +8°C° 0 mm 1 mps 717 mmHg 74%
    04:00 +8°C° 0 mm 1 mps 717 mmHg 71%
    05:00 +8°C° 0 mm 1 mps 717 mmHg 68%
    06:00 +8°C° 0 mm 1 mps 718 mmHg 66%
    07:00 +9°C° 0 mm 1 mps 718 mmHg 63%
    08:00 +11°C° 0 mm 1 mps 718 mmHg 58%
    09:00 +14°C° 0 mm 1 mps 719 mmHg 54%
    10:00 +18°C° 0 mm 1 mps 719 mmHg 49%
    11:00 +19°C° 0 mm 1 mps 719 mmHg 49%
    12:00 +20°C° 0 mm 1 mps 719 mmHg 49%
    13:00 +21°C° 0 mm 1 mps 718 mmHg 49%
    14:00 +20°C° 0 mm 1 mps 718 mmHg 55%
    15:00 +19°C° 0 mm 1 mps 718 mmHg 61%
    16:00 +18°C° 0 mm 1 mps 717 mmHg 67%
    17:00 +15°C° 0 mm 1 mps 717 mmHg 71%
    18:00 +14°C° 0 mm 1 mps 717 mmHg 75%
    19:00 +12°C° 0 mm 1 mps 717 mmHg 78%
    20:00 +12°C° 0 mm 1 mps 717 mmHg 78%
    21:00 +12°C° 0 mm 1 mps 717 mmHg 77%
    22:00 +12°C° 0 mm 1 mps 717 mmHg 76%
    23:00 +12°C° 0 mm 1 mps 717 mmHg 74%

    27 October, Friday

    Time Temperature Precipitation Wind Pressure Humidity
    00:00 +12°C° 0 mm 1 mps 716 mmHg 72%
    01:00 +12°C° 0 mm 1 mps 716 mmHg 70%
    02:00 +11°C° 0 mm 1 mps 716 mmHg 69%
    03:00 +11°C° 0 mm 1 mps 716 mmHg 68%
    04:00 +11°C° 0 mm 1 mps 715 mmHg 67%
    05:00 +11°C° 0 mm 1 mps 715 mmHg 67%
    06:00 +11°C° 0 mm 1 mps 715 mmHg 66%
    07:00 +11°C° 0 mm 1 mps 715 mmHg 65%
    08:00 +14°C° 0 mm 1 mps 715 mmHg 60%
    09:00 +18°C° 0 mm 1 mps 715 mmHg 54%
    10:00 +20°C° 0 mm 1 mps 715 mmHg 49%
    11:00 +21°C° 0 mm 1 mps 715 mmHg 47%
    12:00 +21°C° 0 mm 2 mps 714 mmHg 46%
    13:00 +21°C° 0 mm 2 mps 713 mmHg 45%
    14:00 +20°C° 0 mm 2 mps 712 mmHg 52%
    15:00 +19°C° 0 mm 2 mps 712 mmHg 59%
    16:00 +18°C° 0 mm 1 mps 711 mmHg 65%
    17:00 +16°C° 0 mm 1 mps 710 mmHg 71%
    18:00 +14°C° 0 mm 1 mps 710 mmHg 76%
    19:00 +12°C° 0 mm 1 mps 709 mmHg 81%
    20:00 +12°C° 0 mm 1 mps 709 mmHg 82%
    21:00 +12°C° 0 mm 1 mps 709 mmHg 82%
    22:00 +11°C° 0 mm 1 mps 708 mmHg 82%
    23:00 +11°C° 0 mm 1 mps 708 mmHg 80%
    Show more